Weather History for KCID - July, 2013

Change the Weather History Date:

Tuesday, July 30, 2013

  Actual Average Record
Temperature  
Mean Temperature 65 °F 72 °F  
Max Temperature 67 °F 83 °F 106 °F (1913)
Min Temperature 62 °F 62 °F 47 °F (1971)
Degree Days  
Heating Degree Days 0 0  
Month to date heating degree days 13 0  
Since 1 June heating degree days 41 29  
Since 1 July heating degree days 13 0  
Cooling Degree Days 0 8  
Month to date cooling degree days 227 240  
Year to date cooling degree days 473 455  
Since 1 June cooling degree days 399 406  
Growing Degree Days 14 (Base 50)    
Moisture  
Dew Point 61 °F    
Average Humidity 83    
Maximum Humidity 93    
Minimum Humidity 73    
Precipitation  
Precipitation 0.02 in 0.13 in 0.88 in (1992)
Month to date precipitation 2.78 4.33  
Year to date precipitation 29.29 20.69  
Sea Level Pressure  
Sea Level Pressure 30.07 in    
Wind  
Wind Speed 6 mph (ESE)    
Max Wind Speed 13 mph    
Max Gust Speed 16 mph    
Visibility 7 miles    
Events Rain    
T = Trace of Precipitation, MM = Missing Value Source: NWS Daily Summary

Daily Weather History Graph

Daily Weather History Graph

Search for Another Location

Airport or City:

Trip Planner

Search our weather history database for the weather conditions in past years. The results will help you decide how hot, cold, wet, or windy it might be!

Date:

Astronomy

Jul. 30, 2013 Rise Set
Actual Time 5:58 AM CDT 8:27 PM CDT
Civil Twilight 5:27 AM CDT 8:58 PM CDT
Nautical Twilight 4:47 AM CDT 9:37 PM CDT
Astronomical Twilight 4:03 AM CDT 10:21 PM CDT
Moon 12:17 AM CDT (7/30) 2:47 PM CDT (7/30)
Length of Visible Light 15h 31m
Length of Day
14h 28m
Last Quarter, 41% of the Moon is Illuminated
Jul 30
Last Quarter
Aug 6
New
Aug 14
First Quarter
Aug 20
Full
Aug 28
Last Quarter

Hourly Weather History & Observations

Time (CDT) Temp. Dew Point Humidity Pressure Visibility Wind Dir Wind Speed Gust Speed Precip Events Conditions
12:52 AM 64.0 °F 57.0 °F 78% 30.11 in 10.0 mi ESE 5.8 mph - N/A   Overcast
1:52 AM 66.0 °F 57.0 °F 73% 30.09 in 10.0 mi SE 6.9 mph - N/A   Overcast
2:52 AM 66.0 °F 57.0 °F 73% 30.08 in 10.0 mi SE 5.8 mph - 0.00 in   Overcast
3:52 AM 66.0 °F 57.0 °F 73% 30.08 in 10.0 mi SE 5.8 mph - 0.00 in Rain Light Rain
4:52 AM 66.0 °F 57.0 °F 73% 30.09 in 10.0 mi SE 6.9 mph - N/A   Overcast
5:23 AM 66.2 °F 57.2 °F 73% 30.10 in 10.0 mi SE 6.9 mph - N/A   Overcast
5:52 AM 64.0 °F 59.0 °F 84% 30.09 in 9.0 mi SSE 8.1 mph - 0.00 in Rain Light Rain
6:52 AM 62.1 °F 61.0 °F 96% 30.10 in 3.0 mi ESE 6.9 mph - 0.01 in Rain Light Rain
7:14 AM 62.6 °F 60.8 °F 94% 30.10 in 5.0 mi ESE 8.1 mph - 0.00 in Rain Light Rain
7:52 AM 63.0 °F 62.1 °F 97% 30.09 in 5.0 mi East 4.6 mph - 0.01 in   Overcast
8:52 AM 64.0 °F 62.1 °F 93% 30.09 in 7.0 mi East 8.1 mph - N/A   Overcast
9:52 AM 64.9 °F 62.1 °F 90% 30.09 in 9.0 mi SE 9.2 mph - N/A   Overcast
10:38 AM 64.4 °F 62.6 °F 94% 30.09 in 2.5 mi ESE 10.4 mph - 0.00 in Rain Light Rain
10:50 AM 64.4 °F 62.6 °F 94% 30.08 in 1.8 mi ESE 10.4 mph - 0.00 in Rain Light Rain
10:52 AM 64.0 °F 63.0 °F 96% 30.08 in 1.8 mi ESE 9.2 mph - 0.00 in Rain Light Rain
11:40 AM 64.4 °F 62.6 °F 94% 30.08 in 4.0 mi ESE 11.5 mph - 0.00 in   Overcast
11:52 AM 64.9 °F 63.0 °F 93% 30.07 in 6.0 mi ESE 10.4 mph - 0.00 in   Overcast
12:52 PM 66.0 °F 63.0 °F 90% 30.06 in 9.0 mi SE 9.2 mph - N/A   Overcast
1:52 PM 66.0 °F 63.0 °F 90% 30.06 in 7.0 mi East 9.2 mph - N/A   Overcast
2:52 PM 66.0 °F 63.0 °F 90% 30.05 in 7.0 mi ESE 8.1 mph - N/A   Overcast
3:52 PM 66.0 °F 63.0 °F 90% 30.05 in 7.0 mi East 6.9 mph - N/A   Overcast
4:52 PM 66.9 °F 63.0 °F 87% 30.05 in 7.0 mi East 5.8 mph - N/A   Overcast
5:52 PM 66.0 °F 63.0 °F 90% 30.05 in 6.0 mi East 5.8 mph - N/A   Overcast
6:52 PM 66.0 °F 64.0 °F 93% 30.05 in 5.0 mi East 3.5 mph - N/A   Overcast
7:52 PM 66.0 °F 63.0 °F 90% 30.04 in 5.0 mi East 5.8 mph - N/A   Overcast
8:52 PM 66.0 °F 64.0 °F 93% 30.05 in 7.0 mi ENE 4.6 mph - N/A   Overcast
9:52 PM 66.0 °F 64.0 °F 93% 30.07 in 8.0 mi North 3.5 mph - N/A   Overcast
10:52 PM 66.0 °F 64.0 °F 93% 30.06 in 5.0 mi Calm Calm - N/A   Overcast
11:52 PM 66.0 °F 63.0 °F 90% 30.05 in 6.0 mi NE 4.6 mph - N/A   Overcast